DD9LH-1 Weather Reports


Display with metric or nautical units.
time (UTC)temp
F
wind
direction
speed
MPH
gust
MPH
rain 1hr
in
rain 24hr
in
rain mn
in
humidity
%
barometer
mb
20190617232002 66 126 1.0 6.0 0.00 0.00 0.00 15 1015.7
20190617231501 66 121 2.0 6.0 0.00 0.00 0.00 14 1015.7
20190617231001 66 107 1.0 5.0 0.00 0.00 0.00 15 1015.8
20190617230502 66 110 2.0 4.0 0.00 0.00 0.00 16 1015.8
20190617230002 66 120 0.0 5.0 0.00 0.00 0.00 16 1015.8
20190617225502 66 97 0.0 3.0 0.00 0.00 0.00 17 1015.8
20190617225005 66 97 1.0 4.0 0.00 0.00 0.00 17 1015.8
20190617224502 66 118 0.0 7.0 0.00 0.00 0.00 17 1015.8
20190617224005 66 128 2.0 5.0 0.00 0.00 0.00 19 1015.9
20190617223501 66 63 1.0 7.0 0.00 0.00 0.00 21 1015.9
20190617223001 66 94 0.0 7.0 0.00 0.00 0.00 23 1015.9
20190617222501 66 67 1.0 3.0 0.00 0.00 0.00 26 1015.9
20190617222001 66 63 0.0 4.0 0.00 0.00 0.00 28 1015.9
20190617221502 66 108 1.0 4.0 0.00 0.00 0.00 31 1015.9
20190617221002 67 135 0.0 5.0 0.00 0.00 0.00 33 1015.9
20190617220501 67 116 0.0 3.0 0.00 0.00 0.00 34 1015.9
20190617220001 67 60 0.0 4.0 0.00 0.00 0.00 36 1015.9
20190617215501 67 82 1.0 3.0 0.00 0.00 0.00 38 1015.9
20190617215001 67 82 0.0 2.0 0.00 0.00 0.00 40 1015.9
20190617214501 67 82 0.0 3.0 0.00 0.00 0.00 41 1015.9
20190617214001 67 82 1.0 3.0 0.00 0.00 0.00 43 1015.9
20190617213502 67 81 0.0 1.0 0.00 0.00 0.00 44 1015.9
20190617213002 68 103 0.0 2.0 0.00 0.00 0.00 45 1015.9
20190617212502 68 102 1.0 3.0 0.00 0.00 0.00 45 1016.0
20190617212001 68 61 0.0 1.0 0.00 0.00 0.00 46 1016.0
20190617211503 68 61 0.0 2.0 0.00 0.00 0.00 46 1016.0
20190617211001 68 59 0.0 2.0 0.00 0.00 0.00 46 1016.0
20190617210502 68 59 0.0 2.0 0.00 0.00 0.00 46 1016.0
20190617210002 68 59 0.0 0.0 0.00 0.00 0.00 46 1016.0
20190617205502 68 59 0.0 1.0 0.00 0.00 0.00 47 1016.0
20190617205002 68 59 0.0 0.0 0.00 0.00 0.00 47 1016.0
20190617204502 68 59 1.0 4.0 0.00 0.00 0.00 48 1016.0
20190617204001 69 59 0.0 0.0 0.00 0.00 0.00 48 1016.0
20190617203501 69 59 0.0 1.0 0.00 0.00 0.00 48 1016.0
20190617203001 69 59 1.0 3.0 0.00 0.00 0.00 48 1016.0
20190617202502 69 59 0.0 3.0 0.00 0.00 0.00 49 1016.0
20190617202001 69 59 0.0 3.0 0.00 0.00 0.00 49 1016.0
20190617201502 69 57 0.0 2.0 0.00 0.00 0.00 49 1016.0
20190617201002 70 57 0.0 3.0 0.00 0.00 0.00 49 1016.1
20190617200502 70 58 0.0 4.0 0.00 0.00 0.00 49 1016.1
20190617200002 70 50 0.0 2.0 0.00 0.00 0.00 50 1016.1
20190617195501 70 50 0.0 2.0 0.00 0.00 0.00 50 1016.2
20190617195002 71 50 0.0 3.0 0.00 0.00 0.00 50 1016.2
20190617194501 71 49 1.0 2.0 0.00 0.00 0.00 50 1016.2
20190617194002 71 49 0.0 3.0 0.00 0.00 0.00 50 1016.1
20190617193502 71 48 0.0 2.0 0.00 0.00 0.00 50 1016.1
20190617193002 72 48 1.0 3.0 0.00 0.00 0.00 50 1016.1
20190617192502 72 48 0.0 1.0 0.00 0.00 0.00 50 1016.1
20190617192002 72 48 0.0 2.0 0.00 0.00 0.00 50 1016.1
20190617191502 72 48 0.0 1.0 0.00 0.00 0.00 50 1016.1
20190617191002 72 48 1.0 2.0 0.00 0.00 0.00 50 1016.1
20190617190501 72 106 0.0 2.0 0.00 0.00 0.00 49 1016.1
20190617190001 73 107 0.0 2.0 0.00 0.00 0.00 49 1016.1
20190617185501 73 107 0.0 2.0 0.00 0.00 0.00 49 1016.2
20190617185002 73 119 0.0 2.0 0.00 0.00 0.00 49 1016.2
20190617184502 73 119 0.0 2.0 0.00 0.00 0.00 49 1016.2
20190617184002 73 119 0.0 1.0 0.00 0.00 0.00 49 1016.4
20190617183502 73 119 0.0 2.0 0.00 0.00 0.00 48 1016.4
20190617183001 73 128 1.0 3.0 0.00 0.00 0.00 49 1016.4
20190617182501 73 128 1.0 3.0 0.00 0.00 0.00 48 1016.5
20190617182002 74 130 1.0 6.0 0.00 0.00 0.00 48 1016.5
20190617181502 74 125 0.0 4.0 0.00 0.00 0.00 47 1016.5
20190617181001 74 124 0.0 4.0 0.00 0.00 0.00 47 1016.5
20190617180502 74 121 2.0 6.0 0.00 0.00 0.00 47 1016.5
20190617180002 74 120 1.0 4.0 0.00 0.00 0.00 47 1016.5
20190617175502 74 120 1.0 6.0 0.00 0.00 0.00 47 1016.6
20190617175002 74 120 1.0 5.0 0.00 0.00 0.00 47 1016.6
20190617174502 74 119 4.0 7.0 0.00 0.00 0.00 47 1016.6
20190617174002 74 94 1.0 4.0 0.00 0.00 0.00 47 1016.9
20190617173501 74 111 1.0 3.0 0.00 0.00 0.00 47 1016.9
20190617173003 74 111 1.0 5.0 0.00 0.00 0.00 47 1016.9
20190617172504 74 138 1.0 4.0 0.00 0.00 0.00 47 1016.9
20190617172002 74 141 0.0 4.0 0.00 0.00 0.00 47 1016.9
20190617171502 74 137 1.0 2.0 0.00 0.00 0.00 47 1016.9
20190617171002 74 137 1.0 3.0 0.00 0.00 0.00 47 1017.0
20190617170502 74 137 1.0 3.0 0.00 0.00 0.00 48 1017.0
20190617170001 74 137 1.0 4.0 0.00 0.00 0.00 47 1017.0
20190617165501 74 137 1.0 7.0 0.00 0.00 0.00 47 1017.0
20190617165002 74 111 1.0 5.0 0.00 0.00 0.00 47 1017.0
20190617164501 74 103 1.0 5.0 0.00 0.00 0.00 46 1017.0
20190617164001 75 84 3.0 6.0 0.00 0.00 0.00 46 1017.1
20190617163501 75 127 0.0 5.0 0.00 0.00 0.00 46 1017.1
20190617163002 75 107 1.0 6.0 0.00 0.00 0.00 46 1017.1
20190617162501 75 106 1.0 4.0 0.00 0.00 0.00 46 1017.2
20190617162001 75 106 2.0 5.0 0.00 0.00 0.00 46 1017.2
20190617161501 75 98 3.0 6.0 0.00 0.00 0.00 45 1017.2
20190617161001 75 135 1.0 10.0 0.00 0.00 0.00 45 1017.5
20190617160502 75 98 2.0 3.0 0.00 0.00 0.00 44 1017.5
20190617160002 75 99 3.0 6.0 0.00 0.00 0.00 44 1017.5
20190617155502 75 57 1.0 5.0 0.00 0.00 0.00 45 1017.5
20190617155002 74 105 0.0 4.0 0.00 0.00 0.00 45 1017.5
20190617154502 74 54 0.0 4.0 0.00 0.00 0.00 45 1017.5
20190617154002 74 51 2.0 6.0 0.00 0.00 0.00 45 1017.5
20190617153501 74 102 2.0 5.0 0.00 0.00 0.00 45 1017.5
20190617153001 74 117 0.0 7.0 0.00 0.00 0.00 44 1017.5
20190617152502 74 109 3.0 5.0 0.00 0.00 0.00 44 1017.6
20190617152001 74 130 3.0 5.0 0.00 0.00 0.00 44 1017.6
20190617151502 74 128 3.0 6.0 0.00 0.00 0.00 44 1017.6
20190617151002 74 113 2.0 3.0 0.00 0.00 0.00 44 1017.8
20190617150502 74 112 2.0 4.0 0.00 0.00 0.00 44 1017.8
20190617150002 73 113 1.0 5.0 0.00 0.00 0.00 44 1017.8
20190617145501 73 88 1.0 4.0 0.00 0.00 0.00 44 1018.0
20190617145002 73 81 0.0 2.0 0.00 0.00 0.00 44 1018.0
20190617144501 72 81 1.0 2.0 0.00 0.00 0.00 44 1018.0
20190617144001 73 81 1.0 3.0 0.00 0.00 0.00 43 1018.1
20190617143502 73 80 1.0 4.0 0.00 0.00 0.00 43 1018.1
20190617143002 73 56 1.0 3.0 0.00 0.00 0.00 43 1018.1
20190617142502 73 51 1.0 3.0 0.00 0.00 0.00 43 1018.3
20190617142002 73 45 1.0 3.0 0.00 0.00 0.00 43 1018.3
20190617141501 73 88 2.0 6.0 0.00 0.00 0.00 42 1018.3
20190617141002 73 128 2.0 6.0 0.00 0.00 0.00 42 1018.4
20190617140501 73 152 1.0 3.0 0.00 0.00 0.00 42 1018.4
20190617140001 73 146 1.0 5.0 0.00 0.00 0.00 42 1018.4
20190617135502 73 44 1.0 5.0 0.00 0.00 0.00 42 1018.5
20190617135002 73 115 1.0 4.0 0.00 0.00 0.00 42 1018.5
20190617134502 74 115 2.0 6.0 0.00 0.00 0.00 41 1018.5
20190617134002 74 69 1.0 4.0 0.00 0.00 0.00 41 1018.6
20190617133501 74 74 2.0 4.0 0.00 0.00 0.00 41 1018.6
20190617133002 74 245 1.0 3.0 0.00 0.00 0.00 40 1018.6
20190617132502 74 245 2.0 5.0 0.00 0.00 0.00 40 1018.6
20190617132001 73 216 2.0 5.0 0.00 0.00 0.00 40 1018.6
20190617131502 73 203 3.0 6.0 0.00 0.00 0.00 40 1018.6
20190617131001 73 200 1.0 3.0 0.00 0.00 0.00 40 1018.6
20190617130502 73 222 2.0 6.0 0.00 0.00 0.00 40 1018.6
20190617130002 73 198 2.0 6.0 0.00 0.00 0.00 40 1018.6
20190617125502 73 217 1.0 6.0 0.00 0.00 0.00 40 1018.7
20190617125001 73 239 3.0 7.0 0.00 0.00 0.00 40 1018.7
20190617124501 73 231 4.0 9.0 0.00 0.00 0.00 39 1018.7
20190617124001 73 224 0.0 4.0 0.00 0.00 0.00 39 1018.7
20190617123501 73 223 4.0 9.0 0.00 0.00 0.00 39 1018.7
20190617123002 73 160 2.0 7.0 0.00 0.00 0.00 39 1018.7
20190617122502 73 209 3.0 5.0 0.00 0.00 0.00 39 1019.0
20190617122002 72 192 3.0 6.0 0.00 0.00 0.00 39 1019.0
20190617121502 72 236 2.0 7.0 0.00 0.00 0.00 39 1019.0
20190617121001 72 227 5.0 11.0 0.00 0.00 0.00 39 1019.0
20190617120501 72 222 4.0 7.0 0.00 0.00 0.00 39 1019.0
20190617120001 72 228 3.0 9.0 0.00 0.00 0.00 38 1019.0
20190617115501 72 238 0.0 11.0 0.00 0.00 0.00 39 1019.1
20190617115001 72 215 2.0 5.0 0.00 0.00 0.00 38 1019.1
20190617114501 72 223 5.0 12.0 0.00 0.00 0.00 38 1019.1
20190617114003 71 218 3.0 6.0 0.00 0.00 0.00 38 1019.1
20190617113501 71 219 1.0 5.0 0.00 0.00 0.00 38 1019.1
20190617113002 71 207 2.0 10.0 0.00 0.00 0.00 38 1019.1
20190617112501 71 238 6.0 10.0 0.00 0.00 0.00 38 1019.1
20190617112001 71 225 1.0 7.0 0.00 0.00 0.00 38 1019.1
20190617111501 71 173 0.0 4.0 0.00 0.00 0.00 38 1019.1
20190617111001 71 232 3.0 6.0 0.00 0.00 0.00 37 1019.2
20190617110502 71 219 4.0 8.0 0.00 0.00 0.00 38 1019.2
20190617110002 71 223 3.0 9.0 0.00 0.00 0.00 38 1019.2
20190617105502 71 233 2.0 7.0 0.00 0.00 0.00 39 1019.3
20190617105002 70 225 3.0 8.0 0.00 0.00 0.00 39 1019.3
20190617104505 70 228 3.0 9.0 0.00 0.00 0.00 38 1019.3
20190617104002 70 231 0.0 7.0 0.00 0.00 0.00 38 1019.5
20190617103501 70 230 5.0 11.0 0.00 0.00 0.00 38 1019.5
20190617103001 70 223 3.0 6.0 0.00 0.00 0.00 38 1019.5
20190617102501 70 221 4.0 7.0 0.00 0.00 0.00 38 1019.6
20190617102002 70 296 3.0 9.0 0.00 0.00 0.00 39 1019.6
20190617101503 70 237 3.0 9.0 0.00 0.00 0.00 38 1019.6
20190617101002 70 236 4.0 9.0 0.00 0.00 0.00 39 1019.6
20190617100501 70 234 5.0 11.0 0.00 0.00 0.00 38 1019.6
20190617100001 70 222 4.0 7.0 0.00 0.00 0.00 38 1019.6
20190617095501 70 211 3.0 9.0 0.00 0.00 0.00 38 1019.6
20190617095001 70 219 2.0 5.0 0.00 0.00 0.00 38 1019.6
20190617094501 70 223 7.0 11.0 0.00 0.00 0.00 38 1019.6
20190617094001 69 224 3.0 5.0 0.00 0.00 0.00 38 1019.6
20190617093502 69 225 3.0 6.0 0.00 0.00 0.00 38 1019.6
20190617093002 69 227 2.0 9.0 0.00 0.00 0.00 38 1019.6
20190617092502 69 230 6.0 10.0 0.00 0.00 0.00 38 1019.6
20190617092002 69 139 2.0 5.0 0.00 0.00 0.00 37 1019.6
20190617091501 69 229 0.0 9.0 0.00 0.00 0.00 36 1019.6
20190617091001 69 208 4.0 9.0 0.00 0.00 0.00 37 1019.6
20190617090502 69 196 6.0 10.0 0.00 0.00 0.00 36 1019.6
20190617090002 69 230 3.0 10.0 0.00 0.00 0.00 36 1019.6
20190617085502 69 215 6.0 9.0 0.00 0.00 0.00 37 1019.6
20190617085002 69 198 4.0 12.0 0.00 0.00 0.00 37 1019.6
20190617084502 69 227 4.0 12.0 0.00 0.00 0.00 36 1019.6
20190617084002 70 252 3.0 6.0 0.00 0.00 0.00 36 1019.6
20190617083501 70 223 6.0 10.0 0.00 0.00 0.00 36 1019.6
20190617083001 70 216 1.0 7.0 0.00 0.00 0.00 35 1019.6
20190617082502 70 225 3.0 10.0 0.00 0.00 0.00 35 1019.6
20190617082001 70 225 4.0 13.0 0.00 0.00 0.00 35 1019.6
20190617081501 71 221 4.0 11.0 0.00 0.00 0.00 34 1019.6
20190617081002 71 226 3.0 11.0 0.00 0.00 0.00 32 1019.6
20190617080501 71 233 1.0 7.0 0.00 0.00 0.00 31 1019.6
20190617080002 71 232 3.0 6.0 0.00 0.00 0.00 30 1019.6
20190617075501 71 209 5.0 10.0 0.00 0.00 0.00 29 1019.6
20190617075002 71 219 2.0 10.0 0.00 0.00 0.00 28 1019.6
20190617074501 71 225 2.0 11.0 0.00 0.00 0.00 28 1019.6
20190617074001 71 159 1.0 7.0 0.00 0.00 0.00 26 1019.6
20190617073502 70 236 7.0 12.0 0.00 0.00 0.00 25 1019.6
20190617073002 70 238 4.0 13.0 0.00 0.00 0.00 23 1019.6
20190617072502 70 232 5.0 13.0 0.00 0.00 0.00 20 1019.6
20190617072002 69 192 3.0 6.0 0.00 0.00 0.00 15 1019.6
20190617071502 69 149 2.0 6.0 0.00 0.00 0.00 9 1019.6
20190617071002 68 238 1.0 7.0 0.00 0.00 0.00 100 1019.6
20190617070501 68 234 3.0 7.0 0.00 0.00 0.00 100 1019.6
20190617070001 67 150 0.0 5.0 0.00 0.00 0.00 100 1019.6
20190617065501 67 214 2.0 6.0 0.00 0.00 0.00 100 1019.6
20190617065002 66 230 0.0 6.0 0.00 0.00 0.00 100 1019.6
20190617064502 66 232 1.0 7.0 0.00 0.00 0.00 100 1019.6
20190617064003 65 232 3.0 6.0 0.00 0.00 0.00 100 1019.6
20190617063502 65 241 2.0 5.0 0.00 0.00 0.00 100 1019.6
20190617063002 65 178 2.0 6.0 0.00 0.00 0.00 100 1019.6
20190617062502 64 232 1.0 4.0 0.00 0.00 0.00 100 1019.5
20190617062002 64 152 0.0 2.0 0.00 0.00 0.00 100 1019.5
20190617061501 63 152 2.0 3.0 0.00 0.00 0.00 100 1019.5
20190617061001 63 160 1.0 5.0 0.00 0.00 0.00 100 1019.2
20190617060502 63 133 3.0 5.0 0.00 0.00 0.00 100 1019.2
20190617060002 62 138 2.0 5.0 0.00 0.00 0.00 100 1019.2
20190617055502 62 140 0.0 4.0 0.00 0.00 0.00 100 1019.2
20190617055002 61 134 0.0 1.0 0.00 0.00 0.00 100 1019.2
20190617054502 61 134 0.0 1.0 0.00 0.00 0.00 100 1019.2
20190617054002 61 134 0.0 1.0 0.00 0.00 0.00 100 1019.1
20190617053501 60 134 0.0 2.0 0.00 0.00 0.00 100 1019.1
20190617053002 60 134 0.0 3.0 0.00 0.00 0.00 100 1019.1
20190617052502 60 133 0.0 3.0 0.00 0.00 0.00 100 1019.1
20190617052002 60 132 1.0 3.0 0.00 0.00 0.00 100 1019.1
20190617051502 59 131 1.0 2.0 0.00 0.00 0.00 100 1019.1
20190617051002 59 122 0.0 4.0 0.00 0.00 0.00 100 1019.0
20190617050502 58 152 0.0 2.0 0.00 0.00 0.00 100 1019.0
20190617050002 58 152 0.0 2.0 0.00 0.00 0.00 100 1019.0
20190617045501 58 154 0.0 5.0 0.00 0.00 0.00 100 1019.0
20190617045002 58 117 0.0 4.0 0.00 0.00 0.00 100 1019.0
20190617044501 57 109 0.0 3.0 0.00 0.00 0.00 100 1019.0
20190617044001 57 109 0.0 3.0 0.00 0.00 0.00 100 1019.0
20190617043502 57 109 0.0 2.0 0.00 0.00 0.00 100 1019.0
20190617043002 57 109 0.0 2.0 0.00 0.00 0.00 100 1019.0
20190617042502 56 108 0.0 2.0 0.00 0.00 0.00 100 1018.9
20190617042001 56 116 0.0 2.0 0.00 0.00 0.00 100 1018.9
20190617041502 56 115 0.0 1.0 0.00 0.00 0.00 100 1018.9
20190617041001 56 115 0.0 2.0 0.00 0.00 0.00 100 1019.1
20190617040502 56 117 1.0 4.0 0.00 0.00 0.00 100 1019.1
20190617040002 56 116 0.0 0.0 0.00 0.00 0.00 100 1019.1
20190617035502 55 116 0.0 3.0 0.00 0.00 0.00 100 1019.1
20190617035002 55 119 2.0 4.0 0.00 0.00 0.00 100 1019.1
20190617034502 55 123 0.0 5.0 0.00 0.00 0.00 100 1019.1
20190617034001 55 115 0.0 2.0 0.00 0.00 0.00 100 1019.0
20190617033501 55 117 0.0 4.0 0.00 0.00 0.00 100 1019.0
20190617033001 55 117 0.0 2.0 0.00 0.00 0.00 100 1019.0
20190617032501 55 117 0.0 3.0 0.00 0.00 0.00 100 1019.0
20190617032001 55 116 1.0 5.0 0.00 0.00 0.00 100 1019.0
20190617031502 55 123 1.0 4.0 0.00 0.00 0.00 100 1019.0
20190617031003 55 123 0.0 3.0 0.00 0.00 0.00 100 1019.1
20190617030502 55 123 0.0 3.0 0.00 0.00 0.00 100 1019.1
20190617030001 55 123 0.0 3.0 0.00 0.00 0.00 100 1019.1
20190617025502 55 122 0.0 2.0 0.00 0.00 0.00 100 1019.1
20190617025001 55 122 1.0 3.0 0.00 0.00 0.00 100 1019.1
20190617024501 55 121 1.0 3.0 0.00 0.00 0.00 100 1019.1
20190617024001 55 121 0.0 4.0 0.00 0.00 0.00 100 1019.1
20190617023502 55 122 0.0 3.0 0.00 0.00 0.00 100 1019.1
20190617023002 55 117 0.0 2.0 0.00 0.00 0.00 100 1019.1
20190617022502 55 116 0.0 4.0 0.00 0.00 0.00 100 1018.9
20190617022002 55 114 0.0 2.0 0.00 0.00 0.00 100 1018.9
20190617021501 55 120 1.0 4.0 0.00 0.00 0.00 100 1018.9
20190617021002 55 143 2.0 4.0 0.00 0.00 0.00 100 1018.9
20190617020501 55 172 1.0 2.0 0.00 0.00 0.00 100 1018.9
20190617020001 55 172 0.0 2.0 0.00 0.00 0.00 100 1018.9
20190617015502 55 172 0.0 1.0 0.00 0.00 0.00 100 1018.7
20190617015002 55 172 0.0 1.0 0.00 0.00 0.00 100 1018.7
20190617014502 55 172 0.0 1.0 0.00 0.00 0.00 100 1018.7
20190617014002 55 172 0.0 1.0 0.00 0.00 0.00 100 1018.9
20190617013501 55 172 0.0 1.0 0.00 0.00 0.00 100 1018.9
20190617013001 56 172 1.0 3.0 0.00 0.00 0.00 100 1018.9
20190617012501 56 177 0.0 3.0 0.00 0.00 0.00 100 1018.8
20190617012002 56 177 0.0 2.0 0.00 0.00 0.00 100 1018.8
20190617011501 55 187 1.0 4.0 0.00 0.00 0.00 100 1018.8
20190617011001 55 190 0.0 3.0 0.00 0.00 0.00 100 1018.9
20190617010501 55 277 0.0 2.0 0.00 0.00 0.00 100 1018.9
20190617010002 56 279 0.0 1.0 0.00 0.00 0.00 100 1018.9
20190617005501 56 279 0.0 2.0 0.00 0.00 0.00 100 1019.0
20190617005001 56 279 0.0 1.0 0.00 0.00 0.00 100 1019.0
20190617004501 56 279 0.0 2.0 0.00 0.00 0.00 100 1019.0
20190617004001 56 281 0.0 0.0 0.00 0.00 0.00 100 1019.0
20190617003502 56 281 0.0 0.0 0.00 0.00 0.00 100 1019.0
20190617003002 56 281 0.0 0.0 0.00 0.00 0.00 100 1019.0
20190617002502 56 281 0.0 0.0 0.00 0.00 0.00 100 1019.0
20190617002002 56 281 0.0 0.0 0.00 0.00 0.00 100 1019.0
20190617001502 56 281 0.0 0.0 0.00 0.00 0.00 100 1019.0
20190617001001 56 281 0.0 0.0 0.00 0.00 0.00 100 1019.0
20190617000501 56 281 0.0 0.0 0.00 0.00 0.00 100 1019.0
20190617000001 56 281 0.0 0.0 0.00 0.00 0.00 100 1019.0
20190616235501 57 281 0.0 0.0 0.00 0.00 0.00 100 1019.1
20190616235001 57 281 0.0 0.0 0.00 0.00 0.00 100 1019.1
20190616234501 57 281 0.0 0.0 0.00 0.00 0.00 100 1019.1
20190616234002 57 281 0.0 0.0 0.00 0.00 0.00 100 1019.1
20190616233502 57 281 0.0 0.0 0.00 0.00 0.00 100 1019.1
20190616233002 57 281 0.0 0.0 0.00 0.00 0.00 100 1019.1
20190616232501 58 281 0.0 0.0 0.00 0.00 0.00 100 1019.1